Theta_e
302 303 303 302 304 304 307 310 312 314 315 317 316 319 324 326 327 326 327 325 326 325 325 326 327 326 328 328 325 327 332 334 332 334 332 330 330 331 330 326 327 329 330 331 336
302 302 303 304 302 305 305 309 310 312 314 317 318 323 321 325 325 325 327 325 324 324 325 324 327 326 326 326 326 327 332 332 330 330 330 329 330 331 330 328 330 331 332 334 335
301 301 304 304 303 302 305 306 309 310 313 316 321 324 324 324 324 324 325 325 324 325 323 323 326 326 326 327 326 328 332 330 329 328 331 329 330 330 329 328 331 330 334 335 336
302 303 302 304 304 302 301 304 307 309 311 315 317 322 323 324 326 324 324 325 324 324 323 323 322 324 328 328 325 327 326 326 325 327 330 329 330 330 330 329 329 330 334 335 336
301 302 303 304 304 303 300 301 304 307 310 313 316 316 321 322 322 322 323 324 324 324 323 322 322 322 327 326 325 325 325 325 324 326 329 330 330 329 329 330 330 330 334 335 336
300 301 302 303 303 304 301 300 302 304 307 311 316 315 320 321 321 321 321 323 322 323 320 323 321 323 324 326 325 325 326 325 325 326 328 329 330 329 329 329 330 330 331 334 334
303 300 300 302 304 303 300 301 304 303 305 310 315 314 318 320 321 320 321 321 321 320 321 320 322 322 324 326 323 324 326 325 325 326 326 328 328 328 329 330 330 331 330 330 331
303 301 300 302 304 300 300 301 305 306 306 307 314 314 318 317 319 320 320 321 320 320 322 319 319 321 321 324 325 325 326 328 325 325 323 325 331 327 328 329 330 331 331 330 330
304 302 300 302 303 299 300 301 306 308 307 307 313 314 316 315 318 319 321 321 320 322 321 322 323 325 324 326 328 326 328 328 325 324 324 326 331 325 326 327 329 330 331 331 331
304 302 300 302 302 298 298 302 306 307 306 307 312 314 313 312 315 315 321 321 322 322 321 321 322 324 325 326 331 328 328 326 323 321 323 325 323 322 323 324 326 329 330 330 331
305 303 300 301 302 298 299 301 304 306 307 311 311 313 314 312 314 315 320 321 321 321 322 322 322 322 323 326 326 326 328 328 323 320 322 324 325 322 323 323 324 324 324 324 324
305 304 300 301 300 298 298 305 306 308 309 308 310 313 313 311 313 316 316 320 321 322 322 323 323 320 322 323 323 327 326 326 323 320 319 322 322 321 321 321 321 322 322 322 322
305 303 300 301 300 299 299 300 305 306 308 307 312 313 313 313 312 315 317 319 320 322 323 324 321 321 323 323 322 324 327 325 324 320 319 319 320 319 319 320 320 320 319 319 319
305 303 300 301 301 302 303 303 304 306 308 310 313 311 313 314 314 314 317 318 319 321 321 321 317 320 322 324 322 323 321 322 323 321 322 320 325 322 321 317 317 318 318 319 318
305 301 300 301 304 302 303 303 304 305 310 309 312 312 313 314 315 316 315 316 318 320 319 319 317 318 320 321 320 322 322 322 322 323 321 321 320 319 319 316 316 317 316 314 314
303 301 301 302 302 301 298 302 304 305 308 309 309 314 313 314 315 316 316 314 315 318 317 316 315 316 317 317 319 318 319 320 321 322 324 321 321 319 318 318 315 313 313 314 313
301 301 302 303 303 298 302 303 305 307 306 310 309 312 313 316 316 315 315 316 316 318 317 317 317 315 317 318 318 318 317 320 318 317 319 317 321 320 314 313 311 312 313 313 313
301 303 302 302 301 298 304 305 307 306 308 307 310 310 311 315 315 314 314 315 314 313 316 317 317 316 316 317 318 318 316 319 320 319 315 311 312 312 314 313 312 313 313 312 313
302 303 302 302 298 301 304 306 306 304 305 307 308 312 310 309 315 314 314 314 314 314 315 315 316 314 316 315 316 318 318 314 314 310 312 312 313 314 313 312 312 313 313 312 313
303 302 301 299 301 302 301 305 304 302 302 305 312 309 313 310 316 315 315 314 314 313 313 314 315 315 314 315 315 316 314 314 314 313 312 311 312 313 313 312 311 311 312 312 313
302 301 300 301 301 302 304 302 302 303 302 307 309 311 310 310 314 315 314 311 314 313 313 313 313 314 314 315 316 316 316 316 315 315 316 313 311 308 311 310 310 311 313 312 312
301 300 300 301 301 299 301 299 300 304 305 306 307 307 308 307 310 311 312 312 310 313 314 313 313 315 315 312 312 314 315 315 313 313 312 314 313 309 308 309 312 311 312 312 312
300 301 300 299 303 299 298 300 300 303 305 306 306 305 304 307 310 308 309 308 312 313 313 313 314 315 314 312 312 315 314 314 314 311 312 311 312 309 308 309 309 310 310 310 311
301 300 298 297 299 300 300 301 302 301 303 305 306 307 306 307 307 308 308 308 309 310 311 312 314 314 315 313 312 314 314 314 314 310 312 312 312 311 308 309 311 312 312 312 312
300 297 297 301 300 301 301 301 302 301 302 302 305 304 306 307 307 307 308 308 307 309 309 310 312 310 311 310 310 312 313 313 314 313 312 314 312 313 312 311 312 312 312 312 312
300 298 297 296 299 301 301 300 301 301 301 302 304 303 303 303 305 307 307 308 309 308 309 308 307 308 307 309 309 309 310 311 312 312 312 312 313 310 312 311 312 312 312 312 312
299 299 302 298 300 301 300 299 300 300 299 300 302 302 301 301 301 302 304 304 307 308 308 309 307 304 305 306 307 299 306 309 310 310 310 311 311 310 309 311 312 312 312 312 311
Wind_Speed
14 14 13 13 14 16 12 10 8 11 10 12 11 13 10 12 21 27 29 27 30 27 24 20 25 19 12 12 13 6 3 6 15 5 7 16 6 4 9 16 8 4 11 21 24
11 12 13 13 13 15 16 15 9 9 10 10 9 10 15 12 14 20 22 29 27 25 16 15 16 17 11 8 8 5 4 9 6 7 10 19 14 10 6 14 12 9 17 23 22
11 11 13 13 12 14 17 18 15 10 9 12 14 11 17 14 12 12 23 24 21 20 10 8 12 10 8 13 13 6 4 2 7 9 10 17 15 13 12 6 16 19 23 20 23
13 11 12 14 12 12 15 16 19 16 11 12 17 10 11 19 7 10 20 21 17 19 8 4 6 2 7 7 6 5 1 4 3 5 3 13 15 12 10 6 15 18 23 23 23
14 13 12 13 13 12 11 15 16 19 15 11 15 15 14 11 5 7 13 19 20 14 7 2 4 4 5 10 7 8 5 2 2 1 1 15 9 8 12 13 15 16 21 22 20
16 15 13 14 14 12 11 12 15 18 18 13 16 16 13 14 13 14 13 14 13 12 7 6 2 0 8 9 7 2 6 9 6 4 1 9 10 4 15 13 15 15 19 18 18
17 17 15 13 13 12 12 11 13 17 19 16 16 18 18 10 17 17 15 16 12 10 7 1 6 5 6 7 4 8 6 6 6 9 1 2 2 4 17 15 15 16 17 16 15
20 17 16 14 12 11 12 11 12 15 20 20 17 17 9 11 11 17 20 20 15 16 11 3 2 1 3 12 11 5 2 7 5 5 2 5 6 7 11 14 14 14 16 16 15
22 18 16 14 12 10 11 11 11 13 16 21 18 18 7 11 20 21 23 28 20 20 18 11 12 8 4 4 3 5 5 8 5 6 3 5 3 12 10 8 12 14 16 15 13
23 18 16 13 11 9 9 11 10 12 15 22 22 15 9 12 23 23 19 18 24 20 11 14 10 2 5 4 6 3 3 6 8 4 2 5 5 5 6 6 4 9 10 12 10
22 19 17 13 11 8 7 5 4 6 15 15 3 11 13 13 21 24 24 18 15 18 7 16 7 10 9 13 5 3 4 5 9 6 4 2 4 8 13 9 3 3 2 5 7
22 19 17 13 11 8 8 3 6 3 6 21 19 25 14 24 13 18 26 12 10 10 11 3 12 11 9 13 8 6 5 2 2 4 4 4 5 6 5 5 5 7 7 8 9
22 20 18 12 10 8 8 7 13 11 3 8 18 13 17 16 11 25 28 11 9 13 12 6 2 6 8 8 10 9 9 6 3 2 4 3 7 8 7 15 12 13 13 13 11
23 22 19 15 7 5 6 4 12 10 3 6 11 11 11 13 7 25 25 12 4 13 12 2 3 6 6 11 6 8 2 2 9 2 1 5 4 7 10 7 6 11 14 12 7
24 23 19 13 5 3 2 9 7 5 4 6 8 14 14 12 23 16 25 11 7 7 7 5 7 8 5 7 7 2 9 5 1 2 5 4 1 6 3 6 7 13 6 7 3
24 22 17 15 3 2 4 7 8 4 7 1 1 8 6 4 10 16 10 8 7 4 5 5 2 4 2 4 4 7 10 8 5 3 2 6 3 4 3 7 4 10 10 6 2
24 18 13 9 4 1 8 10 3 3 2 4 5 8 13 7 8 16 15 9 6 7 4 8 4 2 7 7 3 3 7 2 2 1 4 2 6 9 1 5 7 11 11 8 6
23 21 15 11 3 7 9 1 4 2 3 2 1 11 5 14 8 15 15 10 6 5 6 7 3 6 4 4 8 8 6 4 5 4 3 4 4 4 1 10 16 14 9 9 9
21 16 11 6 4 7 4 3 2 3 4 7 3 8 5 3 8 12 16 14 6 6 4 5 4 3 7 2 9 6 5 3 4 2 3 4 4 4 5 6 11 7 10 10 15
21 13 10 6 7 1 1 1 2 2 4 3 0 2 4 2 12 10 14 8 6 2 4 3 5 4 3 2 5 3 6 3 2 3 2 3 3 4 5 5 8 8 9 15 17
12 5 4 7 4 3 2 3 4 5 3 4 5 3 5 3 6 5 5 4 2 5 2 5 5 3 5 3 6 3 4 1 4 2 3 1 3 4 4 5 9 14 14 16 16
5 3 4 5 3 1 1 2 4 4 4 3 4 5 5 6 4 4 5 3 4 8 5 3 4 4 3 3 4 5 6 4 3 3 1 3 4 3 5 9 20 16 11 11 11
4 3 2 4 1 1 0 1 2 4 6 3 6 8 5 4 3 4 4 9 11 5 3 2 3 5 4 4 2 2 4 3 5 3 5 5 3 3 8 10 11 10 4 4 3
3 1 1 4 4 3 3 1 2 3 4 5 2 2 3 5 8 4 4 8 13 8 10 7 3 2 3 4 2 5 7 7 4 3 3 5 1 3 4 4 2 1 1 8 8
4 2 1 2 3 3 3 1 2 4 4 7 4 7 4 3 3 4 4 6 9 5 5 3 3 4 8 4 5 3 5 8 10 6 3 2 6 4 3 4 13 14 15 11 10
2 3 4 2 4 3 1 3 3 4 4 4 7 9 9 5 5 4 2 6 3 6 3 2 2 2 3 5 4 1 4 5 4 5 6 6 13 7 22 25 22 27 27 26 17
3 5 3 2 1 2 4 3 5 3 8 10 4 9 11 10 15 17 19 16 8 5 3 2 3 2 2 4 2 4 7 10 6 6 7 7 11 13 8 13 16 20 21 12 6
Wind_Direction
268 271 271 267 265 257 247 253 268 261 253 251 259 245 240 227 238 236 233 239 234 257 269 270 251 274 274 259 252 259 270 245 254 170 124 148 140 129 87 126 113 93 73 148 158
254 264 261 278 272 261 247 246 253 268 251 248 214 227 234 226 224 224 222 232 228 236 263 262 237 278 299 243 220 223 214 247 272 261 142 159 152 138 142 140 125 112 115 147 158
264 257 259 261 276 271 261 244 249 264 249 243 214 185 218 210 216 224 216 218 217 225 238 263 222 260 280 250 213 214 253 257 353 16 122 162 164 156 162 176 165 150 148 157 156
264 265 255 257 264 276 267 253 243 247 256 240 231 188 219 186 211 210 211 214 199 200 202 253 154 205 284 260 206 248 86 322 339 330 82 169 157 164 193 113 151 164 162 157 164
259 262 262 258 263 272 281 250 240 242 247 243 235 229 227 216 216 155 178 195 192 184 202 173 173 169 276 293 235 242 118 137 241 192 320 170 144 163 120 123 111 145 160 163 169
252 253 260 258 262 269 284 275 246 238 240 248 234 220 218 214 214 153 151 178 166 165 183 184 167 171 303 293 336 296 185 138 161 116 353 172 135 185 133 132 133 154 165 170 175
248 245 253 256 253 266 276 273 257 232 240 241 235 225 236 220 205 192 181 187 205 200 187 116 210 165 338 286 301 259 155 143 155 150 161 159 62 232 152 140 149 162 170 175 181
245 242 243 250 244 267 267 260 251 237 235 237 239 220 250 248 205 207 195 194 196 195 169 155 138 274 243 307 305 233 197 151 118 164 243 216 196 201 134 149 160 173 176 180 185
237 238 237 244 243 265 268 252 244 251 230 240 240 201 226 196 207 202 198 199 180 199 186 197 175 196 165 252 193 274 182 146 120 16 145 209 88 104 129 159 203 180 176 179 186
233 230 230 235 239 255 264 245 243 261 229 241 254 197 216 206 198 195 181 189 178 192 194 197 193 221 159 223 185 213 218 124 116 28 343 183 123 93 121 150 233 183 189 154 173
225 220 221 225 230 247 250 275 264 259 233 211 297 201 201 180 182 187 186 177 184 164 182 200 186 191 219 190 232 276 353 354 61 35 39 234 233 163 147 131 172 258 163 183 212
215 209 212 215 221 238 224 214 272 240 271 262 257 207 175 165 159 182 185 168 166 175 167 151 211 193 92 140 149 159 173 291 331 23 356 309 256 261 278 154 221 252 240 230 237
203 198 201 202 212 230 233 259 262 275 310 286 208 195 183 180 174 176 181 168 184 174 172 185 162 192 168 216 163 169 198 200 293 143 207 330 274 246 241 225 220 234 243 247 257
193 188 190 192 204 226 259 284 246 257 262 197 179 200 198 176 154 175 174 162 199 196 158 228 153 154 173 181 182 181 197 122 173 199 189 134 292 270 230 160 183 232 240 251 245
179 180 186 171 163 151 221 226 230 175 272 122 155 168 191 180 136 181 174 184 203 191 148 151 155 157 156 173 176 121 101 172 243 22 1 203 179 254 260 162 191 215 190 146 170
168 172 175 180 140 237 259 196 140 126 249 197 335 159 184 159 176 144 162 166 189 75 93 96 87 104 141 86 119 139 109 97 76 34 267 233 214 249 229 207 130 98 104 112 141
154 164 153 168 153 69 156 143 139 221 307 165 204 144 177 163 144 161 168 174 149 140 156 120 93 72 142 95 103 160 142 97 76 147 220 145 213 244 275 65 113 142 126 128 115
155 164 164 161 145 155 164 117 222 230 294 322 220 116 142 173 143 165 160 168 182 192 144 150 156 192 175 161 165 186 184 158 171 182 207 350 240 256 39 70 118 126 123 140 132
157 156 144 123 155 150 163 226 65 324 312 330 86 165 174 229 150 148 178 176 176 198 143 146 88 146 148 79 138 185 213 16 98 45 69 193 267 318 229 129 118 153 162 166 158
147 123 88 124 154 79 70 33 47 284 330 263 102 318 151 287 132 152 168 167 131 218 13 97 118 140 56 84 66 136 134 80 345 131 203 239 254 222 202 207 166 149 166 157 159
144 86 118 120 126 31 359 11 320 23 2 324 11 29 62 175 124 113 122 51 229 111 15 111 114 137 136 240 153 130 158 157 135 112 168 160 230 316 60 270 164 170 175 168 164
100 76 115 94 47 72 79 318 340 323 279 338 2 48 30 8 70 110 119 104 245 118 94 14 103 123 121 8 355 218 161 144 128 241 238 136 266 25 37 34 110 92 89 118 134
85 93 77 29 100 94 16 292 305 329 5 2 33 52 30 25 87 62 76 19 97 66 110 152 119 107 91 3 22 216 207 197 125 84 201 148 256 6 64 66 63 74 71 121 119
81 90 23 54 91 125 145 85 43 0 328 358 94 109 65 31 41 58 65 40 63 81 69 50 69 66 115 101 139 170 193 206 196 146 174 211 76 93 108 125 121 78 284 312 315
46 72 89 26 36 14 26 297 89 12 324 359 41 33 34 81 55 62 47 101 55 50 59 77 90 92 101 70 33 61 175 207 217 229 201 77 230 266 324 295 297 301 291 281 281
64 132 94 53 336 356 20 343 104 141 10 336 87 52 59 72 77 119 98 75 92 45 65 357 123 94 60 120 103 135 269 266 272 259 279 275 268 267 274 274 272 272 276 281 288
56 118 90 332 324 343 4 11 25 66 74 29 53 86 54 47 65 74 84 57 110 120 117 106 125 98 122 353 73 338 219 209 210 207 203 229 241 253 263 258 253 260 260 245 244